Location: Bougoudala
(13.2282°N, 4.9477°W)
Time: 11:50:16
(UTC+00:00)

Ariane H10+ - Pass Details

Date: 29 January 2020
Orbit: 235 x 8412 km, 6.8° (Epoch: 20 February)

Event Time Altitude Azimuth Distance (km) Brightness Sun altitude
Rises 20:43:52 0° 239° (WSW) 2,447 5.6 -34.8°
Reaches altitude 10° 20:45:27 10° 228° (SW) 1,879 4.6 -35.2°
Enters shadow 20:46:18 17° 219° (SW) 1,636 4.1 -35.4°
